This is the latest recevied weather packets stored in our database for station/object NR5ON-13. If no packets are shown the sender has not sent any weather packets the latest 10 day(s).
| Time | Temp. | Humidity | Pressure | Rain* | Wind** | Luminosity | Snow |
|---|---|---|---|---|---|---|---|
| 1778043511 | 5.56° C | 88% | 1016.1 hPa | 0.25 mm | - | - | - |
| 1778043217 | 5.56° C | 89% | 1016.5 hPa | 0.25 mm | - | - | - |
| 1778042922 | 5.56° C | 90% | 1016.1 hPa | 0.25 mm | - | - | - |
| 1778042606 | 6.11° C | 90% | 1016.1 hPa | 0 mm | - | - | - |
| 1778042310 | 5.56° C | 90% | 1016.1 hPa | 0 mm | - | - | - |
| 1778042014 | 5.56° C | 90% | 1015.7 hPa | 0 mm | - | - | - |
| 1778041719 | 5.56° C | 90% | 1015.2 hPa | 0 mm | - | - | - |
| 1778041409 | 5.56° C | 90% | 1015 hPa | 0 mm | - | - | - |
| 1778041114 | 5.56° C | 90% | 1014.8 hPa | 0 mm | - | - | - |
| 1778040821 | 5.56° C | 90% | 1014.9 hPa | 0.25 mm | - | - | - |
| 1778040509 | 5.56° C | 90% | 1015 hPa | 0.25 mm | - | - | - |
| 1778040217 | 5.56° C | 90% | 1015.1 hPa | 0.25 mm | - | - | - |
| 1778039922 | 5.56° C | 89% | 1015.2 hPa | 0.25 mm | - | - | - |
| 1778039609 | 5.56° C | 89% | 1015.1 hPa | 0.51 mm | - | - | - |
| 1778039315 | 5.56° C | 89% | 1015.1 hPa | 1.02 mm | - | - | - |
| 1778039020 | 5.56° C | 88% | 1015.3 hPa | 1.52 mm | - | - | - |
| 1778038708 | 5.56° C | 88% | 1015.4 hPa | 1.78 mm | - | - | - |
| 1778038413 | 5.56° C | 87% | 1015.4 hPa | 1.78 mm | - | - | - |
| 1778038117 | 6.11° C | 87% | 1015.5 hPa | 1.78 mm | - | - | - |
| 1778037823 | 6.11° C | 87% | 1015.4 hPa | 1.78 mm | - | - | - |
| 1778037507 | 6.11° C | 87% | 1015.4 hPa | 1.78 mm | - | - | - |
| 1778037213 | 6.11° C | 87% | 1015.4 hPa | 1.52 mm | - | - | - |
| 1778036919 | 6.11° C | 86% | 1015.2 hPa | 1.52 mm | - | - | - |
| 1778036607 | 6.11° C | 85% | 1015 hPa | 1.52 mm | - | - | - |
| 1778036313 | 6.67° C | 84% | 1015 hPa | 1.52 mm | - | - | - |
* Rain latest hour (hover to see other rain measurements)
** Current wind speed in m/s (hover to see current wind gust speed)